TimeHST,TemperatureF,Dew PointF,Humidity,Sea Level PressureIn,VisibilityMPH,Wind Direction,Wind SpeedMPH,Gust SpeedMPH,PrecipitationIn,Events,Conditions,WindDirDegrees,DateUTC
12:53 AM,73.0,63.0,71,30.18,10.0,NE,16.1,20.7,N/A,,Partly Cloudy,50,2012-02-17 10:53:00
1:53 AM,73.0,64.0,73,30.18,10.0,ENE,11.5,-,N/A,,Scattered Clouds,60,2012-02-17 11:53:00
2:53 AM,71.1,64.9,81,30.17,10.0,ENE,6.9,-,0.00,,Mostly Cloudy,70,2012-02-17 12:53:00
3:53 AM,73.0,63.0,71,30.16,10.0,NE,12.7,23.0,N/A,,Mostly Cloudy,50,2012-02-17 13:53:00
4:53 AM,72.0,63.0,73,30.16,10.0,ENE,10.4,-,N/A,,Scattered Clouds,60,2012-02-17 14:53:00
5:53 AM,72.0,63.0,73,30.17,10.0,NE,10.4,-,0.00,,Scattered Clouds,50,2012-02-17 15:53:00
6:53 AM,72.0,62.1,71,30.19,10.0,ENE,13.8,-,0.00,,Scattered Clouds,60,2012-02-17 16:53:00
7:53 AM,73.0,62.1,68,30.21,10.0,ENE,12.7,-,N/A,,Scattered Clouds,60,2012-02-17 17:53:00
8:53 AM,75.9,61.0,60,30.23,10.0,ENE,19.6,26.5,N/A,,Scattered Clouds,70,2012-02-17 18:53:00
9:53 AM,77.0,61.0,58,30.24,10.0,ENE,15.0,-,N/A,,Scattered Clouds,60,2012-02-17 19:53:00
10:53 AM,78.1,60.1,54,30.23,9.0,ENE,21.9,26.5,N/A,Rain,Light Rain,70,2012-02-17 20:53:00
11:53 AM,80.1,60.1,50,30.21,10.0,ENE,19.6,27.6,0.00,,Scattered Clouds,60,2012-02-17 21:53:00
12:53 PM,80.1,57.9,47,30.18,10.0,NE,19.6,28.8,N/A,,Scattered Clouds,50,2012-02-17 22:53:00
1:53 PM,81.0,57.9,45,30.15,10.0,ENE,16.1,26.5,N/A,,Scattered Clouds,60,2012-02-17 23:53:00
2:53 PM,82.0,59.0,45,30.13,10.0,NE,18.4,27.6,N/A,,Partly Cloudy,50,2012-02-18 00:53:00
3:53 PM,80.1,59.0,48,30.13,10.0,NE,20.7,28.8,N/A,,Partly Cloudy,50,2012-02-18 01:53:00
4:53 PM,78.1,60.1,54,30.14,10.0,ENE,23.0,33.4,N/A,,Partly Cloudy,60,2012-02-18 02:53:00
5:53 PM,75.9,59.0,56,30.16,10.0,ENE,18.4,24.2,N/A,,Scattered Clouds,60,2012-02-18 03:53:00
6:53 PM,73.9,60.1,62,30.17,10.0,NE,17.3,-,N/A,,Scattered Clouds,50,2012-02-18 04:53:00
7:53 PM,73.9,61.0,64,30.19,10.0,ENE,16.1,21.9,N/A,,Scattered Clouds,60,2012-02-18 05:53:00
8:53 PM,73.9,61.0,64,30.20,10.0,NE,16.1,24.2,N/A,,Partly Cloudy,50,2012-02-18 06:53:00
9:53 PM,73.9,61.0,64,30.21,10.0,ENE,15.0,-,N/A,,Scattered Clouds,70,2012-02-18 07:53:00
10:53 PM,72.0,63.0,73,30.22,10.0,East,12.7,-,0.00,Rain,Light Rain,90,2012-02-18 08:53:00
11:53 PM,72.0,62.1,71,30.21,10.0,ENE,13.8,-,0.00,,Scattered Clouds,70,2012-02-18 09:53:00